IRIDIUM 33 DEB, 35488

Orbit data source: Space-Track

IRIDIUM 33 DEB, 35488 is space debris in LEO originally from a launch on Sun, 14 Sep 1997 UTC launched from the Tyuratam Missile And Space Complex (TTMTR). The debris from Iridium 33, an American commercial communications satellite, has been tracked extensively since its accidental collision with the defunct Russian satellite Cosmos 2251 in 2009. This event, occurring at high speed in low Earth orbit (LEO), generated thousands of pieces of space debris, significantly increasing the risk of further collisions. The Iridium 33 debris cloud has impacted space traffic management and orbital debris mitigation strategies, making it a subject of ongoing study in space situational awareness.

Loading next visibility...
Identifier
35488, 1997-051QJ
Orbit
LEO
Country
Flag of USUS
Related business
Manufacturer
Unknown
Mission
Spacecraft
Bus & Motor
Unknown
Mass
Unknown
Launch date (UTC)
1997-09-14 (28 years ago)
Launch vehicle
Unknown
Launch site
Tyuratam Missile And Space Complex (TTMTR)
Object type
Payload
Rocket body
Debris
Shape & HBR
Unknown shape, 0.1 m
Radar Cross Section
Small (<0.1 m²)

Expand to show TLE details & history
Last TLE update: 19 hours ago

TLE from 19 hours ago
0 IRIDIUM 33 DEB
1 35488U 97051QJ  26037.65227329  .00012237  00000-0  14352-2 0  9996
2 35488  86.3217 275.0710 0024661 197.5706 162.4667 14.84661270890955
Epoch: 2026-02-06T15:39Z
TLE epoch observation values (Epoch: 2026-02-06T15:39:16.412Z)
Latitude
-0.00005°
Longitude
-96.53446°
Altitude
634.222 km
Speed
7.532 km/s
True Right ascension
18h 20m 17s
True Declination
0° 00' 00"
Sunlit
Object was in daylight at epoch
Visualization orbit readout
Latitude
Unknown
Longitude
Unknown
Altitude
Unknown
Speed
Unknown
Apparent Right ascension
Unknown
Apparent Declination
Unknown
Sunlit
N/A
Visualization observer readout
Local Sidereal Time
12:53:56
Azimuth
Unknown
Elevation
Unknown
Doppler factor
Unknown
Orbital elements
Apogee altitude
628.782 km
Perigee altitude
594.307 km
Semi-major axis
6,989.681 km
Eccentricity
0.00247
Inclination
86.3217°
RAAN
275.071°
Arg. of periapsis
197.5706°
True anomaly
162.55158°
Mean anomaly
162.4667°
Eccentric anomaly
162.50917°
Mean motion
3.71413 °/min
Orbital period
96.93 mins
BSTAR
0.0014352
Loading maneuver chart data...
Computing Atmospheric mass density...

Documentation

Showing up to 5 results
|